• In Czech Republic
  • List of Countries
  • For 7 days
  • Water Temperature
  • Satellite Maps
  • Weather Map
  • Weather Widgets
  • user-avatar
    Login

    Hourly Weather Casper

    Today, 22 October, Sunday

    Time Temperature Precipitation Wind Pressure Humidity
    00:00 +2°C° 0 mm 9 mps 629 mmHg 42%
    01:00 +2°C° 0 mm 9 mps 629 mmHg 44%
    02:00 +2°C° 0 mm 9 mps 629 mmHg 46%
    03:00 +2°C° 0 mm 9 mps 629 mmHg 47%
    04:00 +2°C° 0 mm 9 mps 629 mmHg 49%
    05:00 +2°C° 0 mm 9 mps 629 mmHg 50%
    06:00 +3°C° 0 mm 10 mps 630 mmHg 49%
    07:00 +5°C° 0 mm 10 mps 630 mmHg 48%
    08:00 +6°C° 0 mm 11 mps 630 mmHg 47%
    09:00 +7°C° 0 mm 12 mps 631 mmHg 44%
    10:00 +9°C° 0 mm 13 mps 631 mmHg 41%
    11:00 +12°C° 0 mm 14 mps 631 mmHg 37%
    12:00 +13°C° 0 mm 14 mps 631 mmHg 36%
    13:00 +13°C° 0 mm 14 mps 631 mmHg 36%
    14:00 +14°C° 0 mm 14 mps 631 mmHg 35%
    15:00 +14°C° 0 mm 13 mps 631 mmHg 36%
    16:00 +14°C° 0 mm 12 mps 631 mmHg 37%
    17:00 +13°C° 0 mm 10 mps 631 mmHg 38%
    18:00 +13°C° 0 mm 11 mps 632 mmHg 40%
    19:00 +12°C° 0 mm 11 mps 632 mmHg 43%
    20:00 +11°C° 0 mm 11 mps 632 mmHg 45%
    21:00 +11°C° 0 mm 11 mps 633 mmHg 47%
    22:00 +9°C° 0 mm 10 mps 633 mmHg 49%
    23:00 +10°C° 0 mm 9 mps 633 mmHg 52%

    Tomorrow, 23 October, Monday

    Time Temperature Precipitation Wind Pressure Humidity
    00:00 +9°C° 0 mm 8 mps 634 mmHg 56%
    01:00 +8°C° 0 mm 6 mps 634 mmHg 60%
    02:00 +7°C° 0 mm 5 mps 634 mmHg 63%
    03:00 +7°C° 0 mm 4 mps 634 mmHg 63%
    04:00 +6°C° 0 mm 4 mps 635 mmHg 63%
    05:00 +5°C° 0 mm 4 mps 635 mmHg 63%
    06:00 +5°C° 0 mm 4 mps 635 mmHg 58%
    07:00 +5°C° 0 mm 4 mps 636 mmHg 53%
    08:00 +5°C° 0 mm 4 mps 637 mmHg 48%
    09:00 +6°C° 0 mm 5 mps 637 mmHg 42%
    10:00 +8°C° 0 mm 6 mps 638 mmHg 37%
    11:00 +9°C° 0 mm 8 mps 638 mmHg 31%
    12:00 +9°C° 0 mm 8 mps 638 mmHg 30%
    13:00 +10°C° 0 mm 8 mps 638 mmHg 29%
    14:00 +10°C° 0 mm 9 mps 638 mmHg 28%
    15:00 +10°C° 0 mm 8 mps 639 mmHg 29%
    16:00 +9°C° 0 mm 7 mps 639 mmHg 30%
    17:00 +8°C° 0 mm 6 mps 639 mmHg 32%
    18:00 +7°C° 0 mm 5 mps 639 mmHg 34%
    19:00 +6°C° 0 mm 4 mps 639 mmHg 36%
    20:00 +6°C° 0 mm 2 mps 639 mmHg 38%
    21:00 +6°C° 0 mm 2 mps 639 mmHg 39%
    22:00 +5°C° 0 mm 2 mps 639 mmHg 40%
    23:00 +5°C° 0 mm 2 mps 639 mmHg 40%

    Day after tomorrow, 24 October, Tuesday

    Time Temperature Precipitation Wind Pressure Humidity
    00:00 +5°C° 0 mm 2 mps 639 mmHg 41%
    01:00 +5°C° 0 mm 2 mps 639 mmHg 41%
    02:00 +4°C° 0 mm 3 mps 639 mmHg 42%
    03:00 +4°C° 0 mm 3 mps 639 mmHg 43%
    04:00 +4°C° 0 mm 3 mps 638 mmHg 45%
    05:00 +4°C° 0 mm 3 mps 638 mmHg 46%
    06:00 +5°C° 0 mm 3 mps 639 mmHg 44%
    07:00 +5°C° 0 mm 3 mps 639 mmHg 42%
    08:00 +6°C° 0 mm 4 mps 639 mmHg 40%
    09:00 +10°C° 0 mm 4 mps 640 mmHg 36%
    10:00 +12°C° 0 mm 4 mps 640 mmHg 31%
    11:00 +14°C° 0 mm 5 mps 641 mmHg 26%
    12:00 +15°C° 0 mm 5 mps 640 mmHg 25%
    13:00 +16°C° 0 mm 6 mps 640 mmHg 24%
    14:00 +17°C° 0 mm 6 mps 639 mmHg 24%
    15:00 +16°C° 0 mm 5 mps 639 mmHg 25%
    16:00 +15°C° 0 mm 5 mps 638 mmHg 27%
    17:00 +14°C° 0 mm 4 mps 638 mmHg 29%
    18:00 +13°C° 0 mm 4 mps 637 mmHg 30%
    19:00 +12°C° 0 mm 4 mps 637 mmHg 32%
    20:00 +11°C° 0 mm 4 mps 637 mmHg 33%
    21:00 +10°C° 0 mm 5 mps 637 mmHg 34%
    22:00 +10°C° 0 mm 5 mps 636 mmHg 35%
    23:00 +10°C° 0 mm 5 mps 636 mmHg 36%

    25 October, Wednesday

    Time Temperature Precipitation Wind Pressure Humidity
    00:00 +9°C° 0 mm 5 mps 635 mmHg 38%
    01:00 +9°C° 0 mm 5 mps 635 mmHg 40%
    02:00 +8°C° 0 mm 5 mps 634 mmHg 42%
    03:00 +8°C° 0 mm 4 mps 634 mmHg 44%
    04:00 +7°C° 0 mm 4 mps 633 mmHg 46%
    05:00 +7°C° 0 mm 4 mps 633 mmHg 47%
    06:00 +7°C° 0 mm 4 mps 633 mmHg 46%
    07:00 +8°C° 0 mm 4 mps 633 mmHg 45%
    08:00 +10°C° 0 mm 4 mps 633 mmHg 44%
    09:00 +12°C° 0 mm 5 mps 632 mmHg 38%
    10:00 +14°C° 0 mm 6 mps 632 mmHg 32%
    11:00 +16°C° 0 mm 6 mps 632 mmHg 26%
    12:00 +18°C° 0 mm 7 mps 631 mmHg 23%
    13:00 +20°C° 0 mm 8 mps 630 mmHg 20%
    14:00 +21°C° 0 mm 9 mps 629 mmHg 17%
    15:00 +20°C° 0 mm 8 mps 629 mmHg 17%
    16:00 +18°C° 0 mm 7 mps 628 mmHg 17%
    17:00 +17°C° 0 mm 7 mps 627 mmHg 17%
    18:00 +16°C° 0 mm 6 mps 627 mmHg 19%
    19:00 +14°C° 0 mm 6 mps 626 mmHg 20%
    20:00 +13°C° 0 mm 5 mps 626 mmHg 22%
    21:00 +13°C° 0 mm 5 mps 626 mmHg 24%
    22:00 +12°C° 0 mm 5 mps 625 mmHg 25%
    23:00 +10°C° 0 mm 5 mps 625 mmHg 26%

    26 October, Thursday

    Time Temperature Precipitation Wind Pressure Humidity
    00:00 +10°C° 0 mm 5 mps 625 mmHg 28%
    01:00 +9°C° 0 mm 5 mps 625 mmHg 30%
    02:00 +8°C° 0 mm 4 mps 625 mmHg 33%
    03:00 +8°C° 0.5 mm 5 mps 626 mmHg 44%
    04:00 +7°C° 0.5 mm 6 mps 626 mmHg 54%
    05:00 +5°C° 0.5 mm 7 mps 627 mmHg 65%
    06:00 +4°C° 0.5 mm 7 mps 628 mmHg 66%
    07:00 +3°C° 0.5 mm 6 mps 628 mmHg 67%
    08:00 +2°C° 0.5 mm 6 mps 629 mmHg 68%
    09:00 +3°C° 0.2 mm 7 mps 630 mmHg 62%
    10:00 +3°C° 0.2 mm 7 mps 631 mmHg 57%
    11:00 +4°C° 0.2 mm 8 mps 631 mmHg 52%
    12:00 +3°C° 0 mm 9 mps 631 mmHg 48%
    13:00 +3°C° 0 mm 9 mps 631 mmHg 43%
    14:00 +3°C° 0 mm 10 mps 631 mmHg 39%
    15:00 +2°C° 0 mm 9 mps 632 mmHg 41%
    16:00 +1°C° 0 mm 8 mps 632 mmHg 43%
    17:00 0°C° 0 mm 7 mps 632 mmHg 45%
    18:00 -1°C° 0 mm 7 mps 632 mmHg 48%
    19:00 -2°C° 0 mm 6 mps 632 mmHg 51%
    20:00 -4°C° 0 mm 5 mps 632 mmHg 54%
    21:00 -3°C° 0 mm 4 mps 632 mmHg 55%
    22:00 -3°C° 0 mm 4 mps 632 mmHg 55%
    23:00 -4°C° 0 mm 3 mps 632 mmHg 56%

    27 October, Friday

    Time Temperature Precipitation Wind Pressure Humidity
    00:00 -4°C° 0 mm 3 mps 633 mmHg 57%
    01:00 -5°C° 0 mm 3 mps 633 mmHg 59%
    02:00 -4°C° 0 mm 2 mps 633 mmHg 60%
    03:00 -4°C° 0 mm 2 mps 633 mmHg 61%
    04:00 -5°C° 0 mm 2 mps 633 mmHg 62%
    05:00 -5°C° 0 mm 2 mps 633 mmHg 63%
    06:00 -5°C° 0 mm 2 mps 633 mmHg 61%
    07:00 -4°C° 0 mm 2 mps 633 mmHg 59%
    08:00 -2°C° 0 mm 1 mps 634 mmHg 57%
    09:00 -2°C° 0 mm 2 mps 634 mmHg 51%
    10:00 -1°C° 0 mm 2 mps 634 mmHg 44%
    11:00 0°C° 0 mm 3 mps 634 mmHg 38%
    12:00 +1°C° 0 mm 3 mps 633 mmHg 36%
    13:00 +2°C° 0 mm 3 mps 633 mmHg 34%
    14:00 +2°C° 0 mm 3 mps 633 mmHg 31%
    15:00 +2°C° 0 mm 3 mps 632 mmHg 34%
    16:00 +1°C° 0 mm 3 mps 632 mmHg 36%
    17:00 +1°C° 0 mm 3 mps 632 mmHg 38%
    18:00 +1°C° 0 mm 2 mps 632 mmHg 40%
    19:00 -1°C° 0 mm 2 mps 632 mmHg 41%
    20:00 0°C° 0 mm 1 mps 632 mmHg 43%
    21:00 0°C° 0 mm 1 mps 631 mmHg 43%
    22:00 0°C° 0 mm 1 mps 631 mmHg 44%
    23:00 0°C° 0 mm 1 mps 631 mmHg 44%
    Show more